This demonstration page uses our WeatherBlox Daily Observations layout. Learn more.

Left ArrowRight Arrow

36.17497, -115.13722

Hourly Observations for July 11, 2021

Temp ( °F °C ) Dew Point ( °F °C ) Humidity (%) Winds ( mph kmh ) Pressure ( in mb ) Visibility ( mi km ) Precip ( " mm )
12:53 am 00:53 Clear 104 40 44 6.7 13 13 Calm 29.70 1006 10 16 0.00 0.00
1:53 am 01:53 Clear 101 38.3 47 8.3 16 16 ENE 6 9 29.71 1006 10 16 0.00 0.00
2:53 am 02:53 Clear 99 37.2 46 7.8 16 16 NNW 7 11 29.71 1006 10 16 0.00 0.00
3:53 am 03:53 Clear 99 37.2 45 7.2 16 16 ENE 7 11 29.73 1007 10 16 0.00 0.00
4:53 am 04:53 Clear 96 35.6 48 8.9 19 19 N 5 7 29.74 1007 10 16 0.00 0.00
5:53 am 05:53 Sunny 95 35 59 15 30 30 E 9 15 29.76 1008 10 16 0.00 0.00
6:53 am 06:53 Sunny 96 35.6 59 15 29 29 E 7 11 29.77 1008 10 16 0.00 0.00
7:53 am 07:53 Sunny 99 37.2 58 14.4 26 26 E 9 15 29.78 1009 10 16 0.00 0.00
8:53 am 08:53 Sunny 100 37.8 58 14.4 25 25 ESE 12 19 29.79 1009 9 14 0.00 0.00
9:53 am 09:53 Sunny 102 38.9 58 14.4 23 23 E 10 17 29.80 1009 10 16 0.00 0.00
10:53 am 10:53 Hazy 105 40.6 57 13.9 20 20 ESE 10 17 29.80 1009 10 16 0.00 0.00
11:53 am 11:53 Hazy 105 40.6 55 12.8 19 19 Calm 29.78 1009 10 16 0.00 0.00
12:53 pm 12:53 Hazy 108 42.2 54 12.2 17 17 E 3 6 29.76 1008 10 16 0.00 0.00
1:53 pm 13:53 Hazy 111 43.9 55 12.8 16 16 SE 7 11 29.73 1007 10 16 0.00 0.00
2:53 pm 14:53 Hazy 112 44.4 54 12.2 15 15 SSE 10 17 29.70 1006 10 16 0.00 0.00
3:53 pm 15:53 Hazy 113 45 53 11.7 14 14 SE 7 11 29.67 1005 10 16 0.00 0.00
4:53 pm 16:53 Hazy 114 45.6 51 10.6 13 13 SSW 6 9 29.65 1004 10 16 0.00 0.00
5:53 pm 17:53 Hazy 114 45.6 50 10 12 12 SSW 7 11 29.62 1003 10 16 0.00 0.00
6:53 pm 18:53 Sunny 114 45.6 49 9.4 12 12 S 7 11 29.62 1003 10 16 0.00 0.00
7:53 pm 19:53 Sunny 112 44.4 50 10 13 13 SSW 13 20 29.64 1004 10 16 0.00 0.00
8:37 pm 20:37 Clear with Nearby Thunderstorms 110 43.3 50 10 14 14 VRB 6 9 29.49 999 10 16 0.00 0.00
8:53 pm 20:53 Clear 105 40.6 51 10.6 16 16 WNW 26 43 29.68 1005 10 16 0.00 0.00
9:00 pm 21:00 Clear 104 40 53 11.7 18 18 NW 30 48 29.52 1000 10 16 0.00 0.00
9:53 pm 21:53 Clear 104 40 50 10 16 16 WNW 41 67 29.71 1006 10 16 0.00 0.00
10:30 pm 22:30 Mostly Clear with Nearby Thunderstorms 105 40.6 47 8.3 14 14 NNW 28 44 29.60 1002 10 16 0.00 0.00
10:51 pm 22:51 Partly Cloudy 99 37 55 13 24 24 E 24 39 29.66 1004 10 16 0.00 0.00
10:53 pm 22:53 Partly Cloudy 97 36.1 56 13.3 25 25 E 21 33 29.80 1009 10 16 0.00 0.00
11:00 pm 23:00 Partly Cloudy 97 36.1 56 13.3 25 25 E 21 33 29.65 1004 10 16 0.00 0.00
11:53 pm 23:53 Mostly Clear 98 36.7 55 12.8 24 24 ESE 7 11 29.82 1010 10 16 0.00 0.00

Powered by AerisWeather